Weather History for LHUD - September, 2013

Change the Weather History Date:

Saturday, September 14, 2013

  Actual Average (LRAR) Record (LRAR)
Temperature  
Mean Temperature 55 °F -  
Max Temperature 60 °F 69 °F 89 °F (2011)
Min Temperature 50 °F 47 °F 44 °F (1996)
Degree Days  
Heating Degree Days 10    
Growing Degree Days 5 (Base 50)    
Moisture  
Dew Point 50 °F    
Average Humidity 79    
Maximum Humidity 88    
Minimum Humidity 72    
Precipitation  
Precipitation 0.08 in 0.04 in - ()
Sea Level Pressure  
Sea Level Pressure 29.99 in    
Wind  
Wind Speed 7 mph ()    
Max Wind Speed 16 mph    
Max Gust Speed -    
Visibility 6.2 miles    
Events Rain    
Averages and records for this station are not official NWS values.
T = Trace of Precipitation, MM = Missing Value Source: Averaged Metar Reports

Daily Weather History Graph

Daily Weather History Graph

Search for Another Location

Airport or City:

Trip Planner

Search our weather history database for the weather conditions in past years. The results will help you decide how hot, cold, wet, or windy it might be!

Date:

Astronomy

Sep. 14, 2013 Rise Set
Actual Time 6:16 AM CEST 6:53 PM CEST
Civil Twilight 5:46 AM CEST 7:23 PM CEST
Nautical Twilight 5:10 AM CEST 7:59 PM CEST
Astronomical Twilight 4:32 AM CEST 8:36 PM CEST
Moon 3:32 PM CEST (9/14) 12:14 AM CEST (9/14)
Length of Visible Light 13h 37m
Length of Day
12h 36m
Waxing Gibbous, 69% of the Moon is Illuminated
Sep 14
Waxing Gibbous
Sep 19
Full
Sep 27
Last Quarter
Oct 5
New
Oct 12
First Quarter

Hourly Weather History & Observations

Time (CEST) Temp. Dew Point Humidity Pressure Visibility Wind Dir Wind Speed Gust Speed Precip Events Conditions
12:45 AM 50.0 °F 46.4 °F 87% 30.04 in - West 5.8 mph - N/A   Clear
1:45 AM 51.8 °F 48.2 °F 88% 30.04 in - West 8.1 mph - N/A   Clear
2:00 AM 52 °F 48 °F 81% 30.04 in 25 mi West 6.7 mph - -   Partly Cloudy
2:45 AM 51.8 °F 48.2 °F 88% 30.04 in - West 8.1 mph - N/A   Clear
3:45 AM 51.8 °F 48.2 °F 88% 30.04 in - WSW 6.9 mph - N/A   Clear
4:45 AM 51.8 °F 48.2 °F 88% 30.01 in - WSW 6.9 mph - N/A   Clear
5:45 AM 51.8 °F 48.2 °F 88% 30.01 in - West 5.8 mph - N/A   Clear
6:15 AM 53.6 °F 48.2 °F 82% 30.01 in - West 5.8 mph - N/A   Clear
6:45 AM 53.6 °F 48.2 °F 82% 30.01 in - WSW 5.8 mph - N/A   Clear
7:15 AM 53.6 °F 48.2 °F 82% 30.01 in - WSW 6.9 mph - N/A   Clear
7:45 AM 55.4 °F 48.2 °F 77% 30.01 in - WSW 8.1 mph - N/A   Clear
8:15 AM 55.4 °F 48.2 °F 77% 30.01 in - West 8.1 mph - N/A   Clear
8:45 AM 55.4 °F 48.2 °F 77% 30.01 in - West 8.1 mph - N/A   Clear
8:59 AM 57.2 °F 48.2 °F 72% 30.04 in 6.2 mi West 8.1 mph - N/A Rain Light Rain
9:15 AM 57.2 °F 48.2 °F 72% 30.01 in 6.2 mi West 8.1 mph - N/A Rain Light Rain
9:45 AM 57.2 °F 48.2 °F 72% 30.04 in 6.2 mi West 8.1 mph - N/A Rain Light Rain
10:15 AM 57.2 °F 50.0 °F 77% 30.04 in 6.2 mi West 5.8 mph - N/A Rain Light Rain
10:45 AM 57.2 °F 51.8 °F 82% 30.04 in 6.2 mi WSW 4.6 mph - N/A Rain Light Rain
11:15 AM 57.2 °F 51.8 °F 82% 30.01 in 6.2 mi WSW 5.8 mph - N/A Rain Light Rain
11:45 AM 57.2 °F 51.8 °F 82% 30.01 in 6.2 mi SW 8.1 mph - N/A Rain Light Rain
12:15 PM 57.2 °F 53.6 °F 88% 30.01 in 6.2 mi SW 8.1 mph - N/A Rain Light Rain
12:45 PM 57.2 °F 53.6 °F 88% 30.01 in 6.2 mi SW 11.5 mph - N/A Rain Light Rain
1:15 PM 57.2 °F 53.6 °F 88% 30.01 in 6.2 mi SW 11.5 mph - N/A Rain Light Rain
1:45 PM 57.2 °F 53.6 °F 88% 29.98 in 6.2 mi SW 11.5 mph - N/A   Overcast
2:15 PM 59.0 °F 53.6 °F 82% 29.98 in - WSW 11.5 mph - N/A   Clear
2:45 PM 59.0 °F 51.8 °F 77% 29.98 in - WSW 11.5 mph - N/A   Clear
3:15 PM 59.0 °F 50.0 °F 72% 29.98 in 6.2 mi West 11.5 mph - N/A Rain Light Rain
3:45 PM 57.2 °F 51.8 °F 82% 29.98 in 6.2 mi WSW 9.2 mph - N/A Rain Light Rain
4:15 PM 59.0 °F 51.8 °F 77% 29.95 in 6.2 mi WSW 8.1 mph - N/A   Overcast
4:45 PM 59.0 °F 51.8 °F 77% 29.95 in 6.2 mi West 9.2 mph - N/A   Overcast
5:15 PM 59.0 °F 50.0 °F 72% 29.95 in 6.2 mi West 6.9 mph - N/A Rain Light Rain
5:45 PM 59.0 °F 51.8 °F 77% 29.95 in 6.2 mi West 9.2 mph - N/A Rain Light Rain
6:15 PM 59.0 °F 51.8 °F 77% 29.95 in 6.2 mi WNW 6.9 mph - N/A Rain Light Rain
6:45 PM 59.0 °F 51.8 °F 77% 29.95 in 6.2 mi WSW 8.1 mph - N/A   Overcast
7:15 PM 59.0 °F 50.0 °F 72% 29.95 in 6.2 mi West 16.1 mph - N/A   Overcast
7:45 PM 59.0 °F 51.8 °F 77% 29.95 in 6.2 mi West 10.4 mph - N/A Rain Light Rain
8:00 PM 58 °F 52 °F 74% 29.95 in 28 mi West 8.9 mph - - Rain Light Rain
8:15 PM 59.0 °F 51.8 °F 77% 29.95 in 6.2 mi WNW 11.5 mph - N/A   Overcast
8:45 PM 60.8 °F 51.8 °F 72% 29.95 in 6.2 mi WNW 10.4 mph - N/A   Mostly Cloudy
9:15 PM 59.0 °F 50.0 °F 72% 29.95 in 6.2 mi West 6.9 mph - N/A   Mostly Cloudy
9:45 PM 59.0 °F 51.8 °F 77% 29.98 in 6.2 mi WNW 4.6 mph - N/A   Scattered Clouds
10:45 PM 59.0 °F 51.8 °F 77% 29.98 in 6.2 mi NW 8.1 mph - N/A   Mostly Cloudy
11:45 PM 59.0 °F 50.0 °F 72% 29.98 in 6.2 mi West 5.8 mph - N/A   Scattered Clouds